Regional Weather Roundup
Issued by NWS State College, PA

Home | Current Version | Previous Version | Graphics & Text | Print | Product List | Glossary On
Versions: 1 2 3 4 5 6 7 8 9 10 11 12 13 14 15 16 17 18 19 20 21 22 23 24 25 26 27 28 29 30 31 32 33 34 35 36 37 38 39 40 41 42 43 44 45 46 47 48 49 50
000
ASUS41 KCTP 301203
RWRCTP

REGIONAL WEATHER ROUNDUP
NATIONAL WEATHER SERVICE STATE COLLEGE PA
800 AM EDT WED JUL 30 2014

Note: "fair" indicates few or no clouds below 12,000 feet with no
significant weather and/or obstructions to visibility.

* = STATION THAT DOES NOT REPORT PRECIPITATION /E.G. RAIN...SNOW...ETC/
    THUNDER OR FOG.

PAZ002>004-007>009-013>016-020>023-029>032-301300-
WESTERN PENNSYLVANIA

CITY           SKY/WX    TMP DP  RH WIND       PRES   REMARKS
ERIE           TSTM      59  55  87 SE5       30.01S FOG
MEADVILLE      PTSUNNY   57  51  80 S7        30.02R
FRANKLIN*      CLOUDY    55  48  76 SW8       30.05R
NEW CASTLE       N/A     56  52  86 CALM      30.05R
BEAVER COUNTY  MOSUNNY   57  50  77 S7        30.04S
BUTLER*        MOSUNNY   55  50  82 S5        30.07S
PITTSBURGH INT MOSUNNY   58  52  80 CALM      30.05R
PITTSBURGH     PTSUNNY   54  50  86 S7        30.05S
INDIANA*       SUNNY     55  52  88 CALM      30.11R
LATROBE        PTSUNNY   54  54 100 CALM      30.08S
WASHINGTON CO* SUNNY     55  52  88 CALM      30.07S
$$

PAZ004>006-010>012-017>019-024>028-033>037-041-042-045-046-049>053-301300-
CENTRAL PENNSYLVANIA

CITY           SKY/WX    TMP DP  RH WIND       PRES   REMARKS
BRADFORD       CLOUDY    54  51  90 VRB5      30.04S
DUBOIS         CLOUDY    55  52  89 SW6       30.05R
CLEARFIELD     FOG       50  50 100 CALM      30.07R VSB 1
JOHNSTOWN      SUNNY     55  48  77 SW6       30.08S
ALTOONA        SUNNY     56  52  86 SW7       30.08S
STATE COLLEGE  SUNNY     54  52  94 CALM      30.06R
WILLIAMSPORT   CLOUDY    57  53  86 CALM      30.05R FOG
SELINSGROVE    MOSUNNY   57  55  93 CALM      30.07R
FT INDIANTOWN  SUNNY     58  57  99 CALM      30.07R
CAPITAL CITY   SUNNY     58  52  80 W5        30.07R
HARRISBURG     SUNNY     61  54  77 CALM      30.06R
YORK           SUNNY     57  53  86 CALM      30.07R
$$

PAZ038>040-043-044-047-048-054-055-060>062-067>071-301300-
EASTERN PENNSYLVANIA

CITY           SKY/WX    TMP DP  RH WIND       PRES   REMARKS
SCRANTON       SUNNY     56  50  80 CALM      30.06R
MOUNT POCONO   MOSUNNY   55  51  86 W3        30.07R
ALLENTOWN      SUNNY     59  53  80 CALM      30.05R
QUAKERTOWN*    SUNNY     57  55  94 CALM      30.06R
READING        SUNNY     60  54  80 CALM      30.05R
LANCASTER      SUNNY     59  53  80 W7        30.06R
COATESVILLE    SUNNY     59  59 100 W3        30.07R
POTTSTOWN      SUNNY     59  54  83 CALM      30.07R
BLUE BELL      NOT AVBL
DOYLESTOWN     SUNNY     60  54  80 CALM      30.04R
WILLOW GROVE   NOT AVBL
NORTH PHILA    SUNNY     65  54  67 NW5       30.06R
PHILADELPHIA   MOSUNNY   65  53  65 VRB3      30.05R
$$



USA.gov is the U.S. government's official web portal to all federal, state and local government web resources and services.